Time,TemperatureF,DewpointF,PressureIn,WindDirection,WindDirectionDegrees,WindSpeedMPH,WindSpeedGustMPH,Humidity,HourlyPrecipIn,Conditions,Clouds,dailyrainin,SoftwareType,DateUTC
2015-08-01 00:00:00,68.8,-99.9,29.86,North,-9999,0.0,0.0,0,0.00,,,-99.99,,2015-08-01 04:00:00,
2015-08-01 00:05:00,68.8,-99.9,29.86,North,-9999,0.0,0.0,0,0.00,,,-99.99,,2015-08-01 04:05:00,
2015-08-01 00:10:00,68.8,-99.9,29.85,North,-9999,0.0,0.0,0,0.00,,,-99.99,,2015-08-01 04:10:00,
2015-08-01 00:15:00,69.0,-99.9,29.85,North,-9999,0.0,0.0,0,0.00,,,-99.99,,2015-08-01 04:15:00,
2015-08-01 00:20:00,68.9,-99.9,29.85,North,-9999,0.0,0.0,0,0.00,,,-99.99,,2015-08-01 04:20:00,
2015-08-01 00:25:00,68.7,-99.9,29.85,North,-9999,0.0,0.0,0,0.00,,,-99.99,,2015-08-01 04:25:00,
2015-08-01 00:30:00,68.8,-99.9,29.86,North,-9999,0.0,0.0,0,0.00,,,-99.99,,2015-08-01 04:30:00,
2015-08-01 00:35:00,68.8,-99.9,29.86,North,-9999,0.0,0.0,0,0.00,,,-99.99,,2015-08-01 04:35:00,
2015-08-01 00:40:00,68.5,-99.9,29.85,North,-9999,0.0,0.0,0,0.00,,,-99.99,,2015-08-01 04:40:00,
2015-08-01 00:45:00,68.5,-99.9,29.85,North,-9999,0.0,0.0,0,0.00,,,-99.99,,2015-08-01 04:45:00,
2015-08-01 00:50:00,68.8,-99.9,29.85,North,-9999,0.0,0.0,0,0.00,,,-99.99,,2015-08-01 04:50:00,
2015-08-01 00:55:00,68.8,-99.9,29.85,North,-9999,0.0,0.0,0,0.00,,,-99.99,,2015-08-01 04:55:00,
2015-08-01 01:00:00,68.4,-99.9,29.84,North,-9999,0.0,0.0,0,0.00,,,-99.99,,2015-08-01 05:00:00,
2015-08-01 01:05:00,68.4,-99.9,29.85,North,-9999,0.0,0.0,0,0.00,,,-99.99,,2015-08-01 05:05:00,
2015-08-01 01:10:00,68.4,-99.9,29.85,North,-9999,0.0,0.0,0,0.00,,,-99.99,,2015-08-01 05:10:00,
2015-08-01 01:15:00,68.5,-99.9,29.85,North,-9999,0.0,0.0,0,0.00,,,-99.99,,2015-08-01 05:15:00,
2015-08-01 01:20:00,68.2,-99.9,29.85,North,-9999,0.0,0.0,0,0.00,,,-99.99,,2015-08-01 05:20:00,
2015-08-01 01:25:00,68.2,-99.9,29.84,North,-9999,0.0,0.0,0,0.00,,,-99.99,,2015-08-01 05:25:00,
2015-08-01 01:30:00,68.1,-99.9,29.85,North,-9999,0.0,0.0,0,0.00,,,-99.99,,2015-08-01 05:30:00,
2015-08-01 01:35:00,68.3,-99.9,29.85,North,-9999,0.0,0.0,0,0.00,,,-99.99,,2015-08-01 05:35:00,
2015-08-01 01:40:00,68.0,-99.9,29.84,North,-9999,0.0,0.0,0,0.00,,,-99.99,,2015-08-01 05:40:00,
2015-08-01 01:45:00,68.4,-99.9,29.85,North,-9999,0.0,0.0,0,0.00,,,-99.99,,2015-08-01 05:45:00,
2015-08-01 01:50:00,68.5,-99.9,29.84,North,-9999,0.0,0.0,0,0.00,,,-99.99,,2015-08-01 05:50:00,
2015-08-01 01:55:00,68.4,-99.9,29.84,North,-9999,0.0,0.0,0,0.00,,,-99.99,,2015-08-01 05:55:00,
2015-08-01 02:00:00,68.3,-99.9,29.84,North,-9999,0.0,0.0,0,0.00,,,-99.99,,2015-08-01 06:00:00,
2015-08-01 02:05:00,68.5,-99.9,29.84,North,-9999,0.0,0.0,0,0.00,,,-99.99,,2015-08-01 06:05:00,
2015-08-01 02:10:00,68.3,-99.9,29.84,North,-9999,0.0,0.0,0,0.00,,,-99.99,,2015-08-01 06:10:00,
2015-08-01 02:15:00,68.2,-99.9,29.85,North,-9999,0.0,0.0,0,0.00,,,-99.99,,2015-08-01 06:15:00,
2015-08-01 02:20:00,68.3,-99.9,29.84,North,-9999,0.0,0.0,0,0.00,,,-99.99,,2015-08-01 06:20:00,
2015-08-01 02:25:00,68.2,-99.9,29.84,North,-9999,0.0,0.0,0,0.00,,,-99.99,,2015-08-01 06:25:00,
2015-08-01 02:30:00,68.5,-99.9,29.84,North,-9999,0.0,0.0,0,0.00,,,-99.99,,2015-08-01 06:30:00,
2015-08-01 02:35:00,68.2,-99.9,29.84,North,-9999,0.0,0.0,0,0.00,,,-99.99,,2015-08-01 06:35:00,
2015-08-01 02:40:00,67.9,-99.9,29.83,North,-9999,0.0,0.0,0,0.00,,,-99.99,,2015-08-01 06:40:00,
2015-08-01 02:45:00,67.9,-99.9,29.83,North,-9999,0.0,0.0,0,0.00,,,-99.99,,2015-08-01 06:45:00,
2015-08-01 02:50:00,67.8,-99.9,29.82,North,-9999,0.0,0.0,0,0.00,,,-99.99,,2015-08-01 06:50:00,
2015-08-01 02:55:00,67.8,-99.9,29.83,North,-9999,0.0,0.0,0,0.00,,,-99.99,,2015-08-01 06:55:00,
2015-08-01 03:00:00,68.0,-99.9,29.83,North,-9999,0.0,0.0,0,0.00,,,-99.99,,2015-08-01 07:00:00,
2015-08-01 03:05:00,67.7,-99.9,29.83,North,-9999,0.0,0.0,0,0.00,,,-99.99,,2015-08-01 07:05:00,
2015-08-01 03:10:00,67.9,-99.9,29.83,North,-9999,0.0,0.0,0,0.00,,,-99.99,,2015-08-01 07:10:00,
2015-08-01 03:15:00,67.8,-99.9,29.82,North,-9999,0.0,0.0,0,0.00,,,-99.99,,2015-08-01 07:15:00,
2015-08-01 03:20:00,67.7,-99.9,29.82,North,-9999,0.0,0.0,0,0.00,,,-99.99,,2015-08-01 07:20:00,
2015-08-01 03:25:00,67.7,-99.9,29.83,North,-9999,0.0,0.0,0,0.00,,,-99.99,,2015-08-01 07:25:00,
2015-08-01 03:30:00,67.9,-99.9,29.82,North,-9999,0.0,0.0,0,0.00,,,-99.99,,2015-08-01 07:30:00,
2015-08-01 03:35:00,67.8,-99.9,29.83,North,-9999,0.0,0.0,0,0.00,,,-99.99,,2015-08-01 07:35:00,
2015-08-01 03:40:00,68.1,-99.9,29.83,North,-9999,0.0,0.0,0,0.00,,,-99.99,,2015-08-01 07:40:00,
2015-08-01 03:45:00,67.8,-99.9,29.83,North,-9999,0.0,0.0,0,0.00,,,-99.99,,2015-08-01 07:45:00,
2015-08-01 03:50:00,67.8,-99.9,29.83,North,-9999,0.0,0.0,0,0.00,,,-99.99,,2015-08-01 07:50:00,
2015-08-01 03:55:00,67.7,-99.9,29.85,North,-9999,0.0,0.0,0,0.00,,,-99.99,,2015-08-01 07:55:00,
2015-08-01 04:00:00,67.7,-99.9,29.82,North,-9999,0.0,0.0,0,0.00,,,-99.99,,2015-08-01 08:00:00,
2015-08-01 04:05:00,67.8,-99.9,29.83,North,-9999,0.0,0.0,0,0.00,,,-99.99,,2015-08-01 08:05:00,
2015-08-01 04:10:00,67.8,-99.9,29.82,North,-9999,0.0,0.0,0,0.00,,,-99.99,,2015-08-01 08:10:00,
2015-08-01 04:15:00,67.8,-99.9,29.83,North,-9999,0.0,0.0,0,0.00,,,-99.99,,2015-08-01 08:15:00,
2015-08-01 04:20:00,67.8,-99.9,29.83,North,-9999,0.0,0.0,0,0.00,,,-99.99,,2015-08-01 08:20:00,
2015-08-01 04:25:00,67.9,-99.9,29.83,North,-9999,0.0,0.0,0,0.00,,,-99.99,,2015-08-01 08:25:00,
2015-08-01 04:30:00,68.0,-99.9,29.83,North,-9999,0.0,0.0,0,0.00,,,-99.99,,2015-08-01 08:30:00,
2015-08-01 04:35:00,68.1,-99.9,29.82,North,-9999,0.0,0.0,0,0.00,,,-99.99,,2015-08-01 08:35:00,
2015-08-01 04:40:00,68.3,-99.9,29.82,North,-9999,0.0,0.0,0,0.00,,,-99.99,,2015-08-01 08:40:00,
2015-08-01 04:45:00,68.4,-99.9,29.82,North,-9999,0.0,0.0,0,0.00,,,-99.99,,2015-08-01 08:45:00,
2015-08-01 04:50:00,68.5,-99.9,29.82,North,-9999,0.0,0.0,0,0.00,,,-99.99,,2015-08-01 08:50:00,
2015-08-01 04:55:00,68.6,-99.9,29.82,North,-9999,0.0,0.0,0,0.00,,,-99.99,,2015-08-01 08:55:00,
2015-08-01 05:00:00,68.6,-99.9,29.82,North,-9999,0.0,0.0,0,0.00,,,-99.99,,2015-08-01 09:00:00,
2015-08-01 05:05:00,68.7,-99.9,29.82,North,-9999,0.0,0.0,0,0.00,,,-99.99,,2015-08-01 09:05:00,
2015-08-01 05:10:00,68.7,-99.9,29.82,North,-9999,0.0,0.0,0,0.00,,,-99.99,,2015-08-01 09:10:00,
2015-08-01 05:15:00,68.8,-99.9,29.81,North,-9999,0.5,0.0,0,0.00,,,-99.99,,2015-08-01 09:15:00,
2015-08-01 05:20:00,69.2,-99.9,29.82,North,-9999,0.0,0.0,0,0.00,,,-99.99,,2015-08-01 09:20:00,
2015-08-01 05:25:00,69.1,-99.9,29.82,North,-9999,0.0,0.0,0,0.00,,,-99.99,,2015-08-01 09:25:00,
2015-08-01 05:30:00,69.2,-99.9,29.83,North,-9999,0.0,0.0,0,0.00,,,-99.99,,2015-08-01 09:30:00,
2015-08-01 05:35:00,69.4,-99.9,29.84,North,-9999,0.3,0.0,0,0.00,,,-99.99,,2015-08-01 09:35:00,
2015-08-01 05:40:00,69.5,-99.9,29.84,North,-9999,0.0,0.0,0,0.00,,,-99.99,,2015-08-01 09:40:00,
2015-08-01 05:45:00,69.6,-99.9,29.83,North,-9999,0.1,0.0,0,0.00,,,-99.99,,2015-08-01 09:45:00,
2015-08-01 05:50:00,69.5,-99.9,29.83,North,-9999,0.0,0.0,0,0.00,,,-99.99,,2015-08-01 09:50:00,
2015-08-01 05:55:00,69.5,-99.9,29.84,North,-9999,0.0,0.0,0,0.00,,,-99.99,,2015-08-01 09:55:00,
2015-08-01 06:00:00,69.7,-99.9,29.84,North,-9999,0.0,0.0,0,0.00,,,-99.99,,2015-08-01 10:00:00,
2015-08-01 06:05:00,69.7,-99.9,29.84,North,-9999,0.0,0.0,0,0.00,,,-99.99,,2015-08-01 10:05:00,
2015-08-01 06:10:00,69.6,-99.9,29.84,North,-9999,0.0,0.0,0,0.00,,,-99.99,,2015-08-01 10:10:00,
2015-08-01 06:15:00,69.4,-99.9,29.83,North,-9999,0.0,0.0,0,0.00,,,-99.99,,2015-08-01 10:15:00,
2015-08-01 06:20:00,69.4,-99.9,29.84,North,-9999,0.0,0.0,0,0.00,,,-99.99,,2015-08-01 10:20:00,
2015-08-01 06:25:00,69.3,-99.9,29.85,North,-9999,0.0,0.0,0,0.00,,,-99.99,,2015-08-01 10:25:00,
2015-08-01 06:30:00,69.3,-99.9,29.85,North,-9999,0.0,0.0,0,0.00,,,-99.99,,2015-08-01 10:30:00,
2015-08-01 06:35:00,69.4,-99.9,29.83,North,-9999,0.0,0.0,0,0.00,,,-99.99,,2015-08-01 10:35:00,
2015-08-01 06:40:00,69.4,-99.9,29.83,North,-9999,0.0,0.0,0,0.00,,,-99.99,,2015-08-01 10:40:00,
2015-08-01 06:45:00,69.5,-99.9,29.85,North,-9999,0.0,0.0,0,0.00,,,-99.99,,2015-08-01 10:45:00,
2015-08-01 06:50:00,69.6,-99.9,29.85,North,-9999,0.0,0.0,0,0.00,,,-99.99,,2015-08-01 10:50:00,
2015-08-01 06:55:00,69.9,-99.9,29.84,North,-9999,0.0,0.0,0,0.00,,,-99.99,,2015-08-01 10:55:00,
2015-08-01 07:00:00,70.0,-99.9,29.85,North,-9999,0.0,0.0,0,0.00,,,-99.99,,2015-08-01 11:00:00,
2015-08-01 07:05:00,70.1,-99.9,29.85,North,-9999,0.1,0.0,0,0.00,,,-99.99,,2015-08-01 11:05:00,
2015-08-01 07:10:00,70.1,-99.9,29.86,North,-9999,0.0,0.0,0,0.00,,,-99.99,,2015-08-01 11:10:00,
2015-08-01 07:15:00,70.2,-99.9,29.83,North,-9999,0.0,0.0,0,0.00,,,-99.99,,2015-08-01 11:15:00,
2015-08-01 07:20:00,70.4,-99.9,29.83,North,-9999,0.0,0.0,0,0.00,,,-99.99,,2015-08-01 11:20:00,